Weather History for St. Paul, MN

Change the Weather History Date:

Friday, June 28, 2013

  Actual Average Record
Temperature  
Mean Temperature 73 °F -  
Max Temperature 78 °F 78 °F 88 °F (2012)
Min Temperature 66 °F 59 °F 32 °F (2001)
Cooling Degree Days 8    
Growing Degree Days 23 (Base 50)    
Moisture  
Dew Point 60 °F    
Average Humidity 68    
Maximum Humidity 88    
Minimum Humidity 56    
Precipitation  
Precipitation 0.11 in - - ()
Sea Level Pressure  
Sea Level Pressure 29.76 in    
Wind  
Wind Speed 12 mph (NW)    
Max Wind Speed 22 mph    
Max Gust Speed 30 mph    
Visibility 9 miles    
Events Rain    
Averages and records for this station are not official NWS values.
T = Trace of Precipitation, MM = Missing Value Source: NWS Daily Summary

Daily Weather History Graph

Daily Weather History Graph

Search for Another Location

Airport:

Trip Planner

Search our weather history database for the weather conditions in past years. The results will help you decide how hot, cold, wet, or windy it might be!

Date:

Astronomy

Jun. 28, 2013 Rise Set
Actual Time 5:28 AM CDT 9:02 PM CDT
Civil Twilight 4:51 AM CDT 9:39 PM CDT
Nautical Twilight 4:01 AM CDT 10:29 PM CDT
Astronomical Twilight 2:56 AM CDT 11:33 PM CDT
Moon No Moon Rise 11:53 AM CDT (6/28)
Length of Visible Light 16h 48m
Length of Day
15h 34m
Waning Gibbous, 66% of the Moon is Illuminated
Jun 28
Waning Gibbous
Jun 29
Last Quarter
Jul 8
New
Jul 15
First Quarter
Jul 22
Full

Hourly Weather History & Observations

Time (CDT) Temp. Dew Point Humidity Pressure Visibility Wind Dir Wind Speed Gust Speed Precip Events Conditions
12:53 AM 73.0 °F 57.0 °F 57% 29.78 in 10.0 mi North 4.6 mph - N/A   Clear
1:53 AM 71.1 °F 57.0 °F 61% 29.78 in 10.0 mi NW 6.9 mph - N/A   Clear
2:53 AM 71.1 °F 55.9 °F 59% 29.78 in 10.0 mi WNW 9.2 mph - N/A   Clear
3:53 AM 71.1 °F 55.9 °F 59% 29.77 in 10.0 mi WNW 10.4 mph - N/A   Clear
4:53 AM 70.0 °F 57.0 °F 63% 29.76 in 10.0 mi West 10.4 mph - N/A   Clear
5:53 AM 71.1 °F 55.9 °F 59% 29.75 in 10.0 mi West 13.8 mph - N/A   Clear
6:53 AM 71.1 °F 55.9 °F 59% 29.75 in 10.0 mi WNW 16.1 mph 28.8 mph N/A   Clear
7:53 AM 72.0 °F 57.0 °F 59% 29.74 in 10.0 mi WNW 21.9 mph 29.9 mph N/A   Clear
8:53 AM 70.0 °F 57.0 °F 63% 29.76 in 10.0 mi NW 15.0 mph 26.5 mph N/A   Overcast
9:53 AM 70.0 °F 57.9 °F 65% 29.75 in 10.0 mi NW 15.0 mph 26.5 mph N/A   Overcast
10:53 AM 71.1 °F 59.0 °F 66% 29.75 in 10.0 mi NW 18.4 mph 26.5 mph N/A   Overcast
11:53 AM 73.0 °F 60.1 °F 64% 29.76 in 10.0 mi NW 21.9 mph 28.8 mph N/A   Overcast
12:53 PM 73.0 °F 59.0 °F 61% 29.77 in 10.0 mi NW 20.7 mph 29.9 mph N/A   Overcast
1:53 PM 73.0 °F 60.1 °F 64% 29.76 in 10.0 mi NW 16.1 mph 25.3 mph N/A   Overcast
2:53 PM 77.0 °F 61.0 °F 58% 29.75 in 10.0 mi NW 18.4 mph 26.5 mph 0.00 in   Mostly Cloudy
3:53 PM 78.1 °F 61.0 °F 56% 29.73 in 10.0 mi WNW 19.6 mph 25.3 mph 0.00 in   Mostly Cloudy
4:53 PM 77.0 °F 64.0 °F 64% 29.74 in 10.0 mi North 13.8 mph 19.6 mph 0.01 in   Mostly Cloudy
5:53 PM 72.0 °F 63.0 °F 73% 29.74 in 10.0 mi North 6.9 mph - 0.00 in   Overcast
6:49 PM 69.8 °F 62.6 °F 78% 29.78 in 1.8 mi North 18.4 mph 24.2 mph 0.06 in Rain Heavy Rain
6:53 PM 68.0 °F 63.0 °F 84% 29.76 in 1.2 mi North 17.3 mph 24.2 mph 0.09 in Rain Heavy Rain
6:58 PM 68.0 °F 64.4 °F 88% 29.77 in 2.0 mi NNW 9.2 mph 24.2 mph 0.01 in Rain Rain
7:05 PM 69.8 °F 64.4 °F 83% 29.77 in 5.0 mi NNW 8.1 mph - 0.01 in Rain Light Rain
7:53 PM 69.1 °F 62.1 °F 78% 29.76 in 10.0 mi NNW 15.0 mph - 0.01 in   Mostly Cloudy
8:53 PM 69.1 °F 62.1 °F 78% 29.77 in 10.0 mi NW 12.7 mph - N/A   Partly Cloudy
9:53 PM 69.1 °F 62.1 °F 78% 29.78 in 10.0 mi NW 10.4 mph - N/A   Overcast
10:53 PM 68.0 °F 62.1 °F 81% 29.77 in 10.0 mi NW 10.4 mph - 0.00 in Rain Light Rain
11:53 PM 66.0 °F 61.0 °F 84% 29.77 in 10.0 mi NNW 12.7 mph - 0.00 in   Scattered Clouds